| time (UTC) | temp F | wind direction | speed knots | gust knots | rain 1hr in | rain 24hr in | rain mn in | humidity % | barometer mb |
| 20260506103201 | 66 | 90 | 1.7 | 7.0 | 0.00 | 0.00 | 0.00 | 71 | 1008.9 |
| 20260506102700 | 66 | 67 | 1.7 | 5.2 | 0.00 | 0.00 | 0.00 | 71 | 1008.8 |
| 20260506102201 | 67 | 90 | 1.7 | 5.2 | 0.00 | 0.00 | 0.00 | 70 | 1008.9 |
| 20260506101700 | 67 | 90 | 0.9 | 2.6 | 0.00 | 0.00 | 0.00 | 70 | 1008.7 |
| 20260506101201 | 67 | 67 | 0.9 | 3.5 | 0.00 | 0.00 | 0.00 | 70 | 1008.8 |
| 20260506100702 | 67 | 112 | 0.0 | 8.7 | 0.00 | 0.00 | 0.00 | 69 | 1008.8 |
| 20260506100201 | 67 | 112 | 1.7 | 8.7 | 0.00 | 0.00 | 0.00 | 68 | 1008.8 |
| 20260506095701 | 67 | 112 | 1.7 | 6.1 | 0.00 | 0.00 | 0.00 | 68 | 1008.9 |
| 20260506095201 | 67 | 112 | 1.7 | 8.7 | 0.00 | 0.00 | 0.00 | 68 | 1008.8 |
| 20260506094702 | 67 | 90 | 3.5 | 8.7 | 0.00 | 0.00 | 0.00 | 68 | 1008.7 |
| 20260506094201 | 67 | 90 | 1.7 | 8.7 | 0.00 | 0.00 | 0.00 | 68 | 1008.8 |
| 20260506093701 | 67 | 112 | 1.7 | 8.7 | 0.00 | 0.00 | 0.00 | 67 | 1008.8 |
| 20260506093201 | 68 | 112 | 1.7 | 6.1 | 0.00 | 0.00 | 0.00 | 67 | 1008.9 |
| 20260506092701 | 68 | 90 | 0.9 | 7.0 | 0.00 | 0.00 | 0.00 | 67 | 1008.9 |
| 20260506092200 | 68 | 90 | 1.7 | 7.0 | 0.00 | 0.00 | 0.00 | 67 | 1008.9 |
| 20260506091703 | 68 | 90 | 1.7 | 8.7 | 0.00 | 0.00 | 0.00 | 66 | 1009.0 |
| 20260506091201 | 68 | 112 | 3.5 | 8.7 | 0.00 | 0.00 | 0.00 | 66 | 1009.0 |
| 20260506090701 | 68 | 90 | 1.7 | 7.8 | 0.00 | 0.00 | 0.00 | 66 | 1008.8 |
| 20260506090200 | 68 | 157 | 2.6 | 7.8 | 0.00 | 0.00 | 0.00 | 65 | 1008.8 |
| 20260506085700 | 68 | 112 | 2.6 | 7.8 | 0.00 | 0.00 | 0.00 | 65 | 1008.8 |
| 20260506085201 | 68 | 90 | 2.6 | 7.8 | 0.00 | 0.00 | 0.00 | 65 | 1008.9 |
| 20260506084700 | 68 | 112 | 2.6 | 6.1 | 0.00 | 0.00 | 0.00 | 65 | 1008.9 |
| 20260506084200 | 68 | 112 | 1.7 | 7.8 | 0.00 | 0.00 | 0.00 | 64 | 1009.0 |
| 20260506083702 | 68 | 90 | 0.9 | 9.6 | 0.00 | 0.00 | 0.00 | 64 | 1009.1 |
| 20260506083202 | 69 | 90 | 2.6 | 9.6 | 0.00 | 0.00 | 0.00 | 64 | 1009.2 |
| 20260506082700 | 69 | 67 | 2.6 | 5.2 | 0.00 | 0.00 | 0.00 | 63 | 1009.2 |
| 20260506082200 | 69 | 90 | 0.9 | 9.6 | 0.00 | 0.00 | 0.00 | 63 | 1009.1 |
| 20260506081701 | 69 | 112 | 2.6 | 9.6 | 0.00 | 0.00 | 0.00 | 62 | 1009.0 |
| 20260506081203 | 69 | 135 | 3.5 | 9.6 | 0.00 | 0.00 | 0.00 | 62 | 1009.1 |
| 20260506080701 | 69 | 135 | 1.7 | 9.6 | 0.00 | 0.00 | 0.00 | 62 | 1009.0 |
| 20260506080201 | 69 | 112 | 3.5 | 7.8 | 0.00 | 0.00 | 0.00 | 62 | 1009.1 |
| 20260506073201 | 69 | 67 | 2.6 | 8.7 | 0.00 | 0.00 | 0.00 | 61 | 1008.8 |
| 20260506072700 | 70 | 90 | 2.6 | 7.0 | 0.00 | 0.00 | 0.00 | 60 | 1008.9 |
| 20260506072200 | 70 | 112 | 2.6 | 7.8 | 0.00 | 0.00 | 0.00 | 60 | 1008.9 |
| 20260506071700 | 70 | 135 | 2.6 | 7.8 | 0.00 | 0.00 | 0.00 | 60 | 1009.0 |
| 20260506071201 | 70 | 90 | 2.6 | 7.0 | 0.00 | 0.00 | 0.00 | 59 | 1009.0 |
| 20260506070702 | 70 | 135 | 2.6 | 7.0 | 0.00 | 0.00 | 0.00 | 59 | 1009.1 |
| 20260506070202 | 70 | 90 | 1.7 | 5.2 | 0.00 | 0.00 | 0.00 | 59 | 1009.1 |
| 20260506062201 | 71 | 112 | 0.9 | 5.2 | 0.00 | 0.00 | 0.00 | 56 | 1009.6 |
| 20260506061700 | 71 | 112 | 2.6 | 9.6 | 0.00 | 0.00 | 0.00 | 56 | 1009.5 |
| 20260506061200 | 71 | 90 | 2.6 | 9.6 | 0.00 | 0.00 | 0.00 | 56 | 1009.6 |
| 20260506060701 | 71 | 90 | 0.9 | 6.1 | 0.00 | 0.00 | 0.00 | 56 | 1009.6 |
| 20260506060201 | 71 | 90 | 1.7 | 5.2 | 0.00 | 0.00 | 0.00 | 56 | 1009.5 |
| 20260506051200 | 72 | 112 | 2.6 | 7.0 | 0.00 | 0.00 | 0.00 | 54 | 1010.0 |
| 20260506050700 | 72 | 67 | 1.7 | 7.0 | 0.00 | 0.00 | 0.00 | 53 | 1010.0 |
| 20260506050202 | 72 | 67 | 0.9 | 3.5 | 0.00 | 0.00 | 0.00 | 53 | 1010.0 |
| 20260506044700 | 72 | 90 | 0.9 | 6.1 | 0.00 | 0.00 | 0.00 | 52 | 1010.1 |
| 20260506044201 | 72 | 90 | 2.6 | 6.1 | 0.00 | 0.00 | 0.00 | 52 | 1010.3 |
| 20260506043700 | 72 | 112 | 0.9 | 5.2 | 0.00 | 0.00 | 0.00 | 51 | 1010.2 |
| 20260506043200 | 72 | 67 | 2.6 | 5.2 | 0.00 | 0.00 | 0.00 | 51 | 1010.0 |
| 20260506042700 | 72 | 90 | 0.9 | 7.0 | 0.00 | 0.00 | 0.00 | 51 | 1010.1 |
| 20260506042202 | 73 | 112 | 1.7 | 7.0 | 0.00 | 0.00 | 0.00 | 50 | 1010.2 |
| 20260506041701 | 72 | 90 | 2.6 | 6.1 | 0.00 | 0.00 | 0.00 | 50 | 1010.2 |
| 20260506041202 | 72 | 112 | 0.9 | 6.1 | 0.00 | 0.00 | 0.00 | 50 | 1010.1 |
| 20260506040701 | 73 | 67 | 1.7 | 6.1 | 0.00 | 0.00 | 0.00 | 50 | 1010.0 |
| 20260506040200 | 73 | 112 | 1.7 | 6.1 | 0.00 | 0.00 | 0.00 | 50 | 1010.0 |
| 20260506035700 | 73 | 112 | 0.9 | 6.1 | 0.00 | 0.00 | 0.00 | 49 | 1010.1 |
| 20260506035201 | 73 | 90 | 1.7 | 7.0 | 0.00 | 0.00 | 0.00 | 49 | 1010.0 |
| 20260506034701 | 73 | 67 | 0.9 | 7.0 | 0.00 | 0.00 | 0.00 | 49 | 1010.0 |
| 20260506034201 | 73 | 67 | 0.9 | 4.3 | 0.00 | 0.00 | 0.00 | 49 | 1009.9 |
| 20260506033701 | 73 | 90 | 0.9 | 8.7 | 0.00 | 0.00 | 0.00 | 48 | 1009.9 |
| 20260506033202 | 72 | 135 | 1.7 | 8.7 | 0.00 | 0.00 | 0.00 | 48 | 1009.8 |
| 20260506032701 | 72 | 90 | 1.7 | 7.8 | 0.00 | 0.00 | 0.00 | 48 | 1009.8 |
| 20260506032201 | 72 | 90 | 0.9 | 7.8 | 0.00 | 0.00 | 0.00 | 47 | 1009.9 |
| 20260506031703 | 73 | 90 | 0.9 | 5.2 | 0.00 | 0.00 | 0.00 | 47 | 1009.9 |
| 20260506031200 | 73 | 67 | 1.7 | 5.2 | 0.00 | 0.00 | 0.00 | 46 | 1010.0 |
| 20260506030701 | 73 | 112 | 0.9 | 6.1 | 0.00 | 0.00 | 0.00 | 46 | 1009.9 |
| 20260506030201 | 73 | 112 | 2.6 | 6.1 | 0.00 | 0.00 | 0.00 | 45 | 1009.9 |
| 20260506025701 | 73 | 112 | 1.7 | 6.1 | 0.00 | 0.00 | 0.00 | 45 | 1009.9 |
| 20260506025202 | 73 | 90 | 1.7 | 6.1 | 0.00 | 0.00 | 0.00 | 44 | 1010.0 |
| 20260506024700 | 73 | 90 | 2.6 | 6.1 | 0.00 | 0.00 | 0.00 | 44 | 1010.0 |
| 20260506024201 | 73 | 67 | 1.7 | 4.3 | 0.00 | 0.00 | 0.00 | 43 | 1009.9 |
| 20260506023702 | 73 | 67 | 0.9 | 4.3 | 0.00 | 0.00 | 0.00 | 42 | 1009.9 |
| 20260506023201 | 74 | 67 | 0.0 | 5.2 | 0.00 | 0.00 | 0.00 | 42 | 1009.9 |
| 20260506022700 | 74 | 112 | 0.9 | 5.2 | 0.00 | 0.00 | 0.00 | 42 | 1010.0 |
| 20260506022200 | 74 | 90 | 1.7 | 5.2 | 0.00 | 0.00 | 0.00 | 41 | 1010.0 |
| 20260506021702 | 74 | 112 | 1.7 | 2.6 | 0.00 | 0.00 | 0.00 | 41 | 1010.1 |
| 20260506021203 | 76 | 112 | 2.6 | 9.6 | 0.00 | 0.00 | 0.00 | 34 | 1009.0 |
| 20260506020701 | 76 | 112 | 2.6 | 9.6 | 0.00 | 0.00 | 0.00 | 34 | 1009.0 |
| 20260506015701 | 76 | 112 | 2.6 | 9.6 | 0.00 | 0.00 | 0.00 | 34 | 1009.0 |
| 20260506015200 | 76 | 112 | 2.6 | 9.6 | 0.00 | 0.00 | 0.00 | 34 | 1009.0 |
| 20260506014703 | 76 | 112 | 2.6 | 9.6 | 0.00 | 0.00 | 0.00 | 34 | 1009.0 |
| 20260506014200 | 76 | 112 | 2.6 | 9.6 | 0.00 | 0.00 | 0.00 | 34 | 1009.0 |
| 20260506013703 | 76 | 112 | 2.6 | 9.6 | 0.00 | 0.00 | 0.00 | 34 | 1009.0 |
| 20260506013202 | 76 | 112 | 2.6 | 9.6 | 0.00 | 0.00 | 0.00 | 34 | 1009.0 |
| 20260506012702 | 76 | 112 | 2.6 | 9.6 | 0.00 | 0.00 | 0.00 | 34 | 1009.0 |
| 20260506012202 | 76 | 112 | 2.6 | 9.6 | 0.00 | 0.00 | 0.00 | 34 | 1009.0 |
| 20260506011701 | 76 | 112 | 2.6 | 9.6 | 0.00 | 0.00 | 0.00 | 34 | 1009.0 |
| 20260506011202 | 76 | 112 | 2.6 | 9.6 | 0.00 | 0.00 | 0.00 | 34 | 1009.0 |
| 20260506010703 | 76 | 112 | 2.6 | 9.6 | 0.00 | 0.00 | 0.00 | 34 | 1009.0 |
| 20260506010200 | 76 | 112 | 2.6 | 9.6 | 0.00 | 0.00 | 0.00 | 34 | 1009.0 |
| 20260506005702 | 76 | 112 | 2.6 | 9.6 | 0.00 | 0.00 | 0.00 | 34 | 1009.0 |
| 20260506005202 | 76 | 112 | 2.6 | 9.6 | 0.00 | 0.00 | 0.00 | 34 | 1009.0 |
| 20260506004701 | 76 | 112 | 2.6 | 9.6 | 0.00 | 0.00 | 0.00 | 34 | 1009.0 |
| 20260506004201 | 76 | 112 | 2.6 | 9.6 | 0.00 | 0.00 | 0.00 | 34 | 1009.0 |
| 20260506003700 | 76 | 112 | 2.6 | 9.6 | 0.00 | 0.00 | 0.00 | 34 | 1009.0 |
| 20260506003201 | 76 | 112 | 2.6 | 9.6 | 0.00 | 0.00 | 0.00 | 34 | 1009.0 |
| 20260506002700 | 76 | 112 | 2.6 | 9.6 | 0.00 | 0.00 | 0.00 | 34 | 1009.0 |
| 20260506002201 | 76 | 112 | 2.6 | 9.6 | 0.00 | 0.00 | 0.00 | 34 | 1009.0 |
| 20260506001701 | 76 | 112 | 2.6 | 9.6 | 0.00 | 0.00 | 0.00 | 34 | 1009.0 |
| 20260506001201 | 76 | 112 | 2.6 | 9.6 | 0.00 | 0.00 | 0.00 | 34 | 1009.0 |
| 20260506000700 | 76 | 112 | 2.6 | 9.6 | 0.00 | 0.00 | 0.00 | 34 | 1009.0 |
| 20260506000200 | 76 | 112 | 2.6 | 9.6 | 0.00 | 0.00 | 0.00 | 34 | 1009.0 |
| 20260505235700 | 76 | 112 | 2.6 | 9.6 | 0.00 | 0.00 | 0.00 | 34 | 1009.0 |
| 20260505235201 | 76 | 112 | 2.6 | 9.6 | 0.00 | 0.00 | 0.00 | 34 | 1009.0 |
| 20260505234700 | 76 | 112 | 2.6 | 9.6 | 0.00 | 0.00 | 0.00 | 34 | 1009.0 |
| 20260505234203 | 76 | 112 | 2.6 | 9.6 | 0.00 | 0.00 | 0.00 | 34 | 1009.0 |
| 20260505233701 | 76 | 112 | 2.6 | 9.6 | 0.00 | 0.00 | 0.00 | 34 | 1009.0 |
| 20260505233202 | 76 | 112 | 2.6 | 9.6 | 0.00 | 0.00 | 0.00 | 34 | 1009.0 |
| 20260505232701 | 76 | 112 | 2.6 | 9.6 | 0.00 | 0.00 | 0.00 | 34 | 1009.0 |
| 20260505232200 | 76 | 112 | 2.6 | 9.6 | 0.00 | 0.00 | 0.00 | 34 | 1009.0 |
| 20260505231702 | 76 | 112 | 2.6 | 9.6 | 0.00 | 0.00 | 0.00 | 34 | 1009.0 |
| 20260505231200 | 76 | 112 | 2.6 | 9.6 | 0.00 | 0.00 | 0.00 | 34 | 1009.0 |
| 20260505230700 | 76 | 112 | 2.6 | 9.6 | 0.00 | 0.00 | 0.00 | 34 | 1009.0 |
| 20260505230200 | 76 | 112 | 2.6 | 9.6 | 0.00 | 0.00 | 0.00 | 34 | 1009.0 |
| 20260505225701 | 76 | 112 | 2.6 | 9.6 | 0.00 | 0.00 | 0.00 | 34 | 1009.0 |
| 20260505225200 | 76 | 112 | 2.6 | 9.6 | 0.00 | 0.00 | 0.00 | 34 | 1009.0 |
| 20260505224700 | 76 | 112 | 2.6 | 9.6 | 0.00 | 0.00 | 0.00 | 34 | 1009.0 |
| 20260505224201 | 76 | 112 | 2.6 | 9.6 | 0.00 | 0.00 | 0.00 | 34 | 1009.0 |
| 20260505223703 | 76 | 112 | 2.6 | 9.6 | 0.00 | 0.00 | 0.00 | 34 | 1009.0 |
| 20260505223201 | 76 | 112 | 2.6 | 9.6 | 0.00 | 0.00 | 0.00 | 34 | 1009.0 |
| 20260505222700 | 76 | 112 | 2.6 | 9.6 | 0.00 | 0.00 | 0.00 | 34 | 1009.0 |
| 20260505222202 | 76 | 112 | 2.6 | 9.6 | 0.00 | 0.00 | 0.00 | 34 | 1009.0 |
| 20260505221700 | 76 | 112 | 2.6 | 9.6 | 0.00 | 0.00 | 0.00 | 34 | 1009.0 |
| 20260505221204 | 76 | 112 | 2.6 | 9.6 | 0.00 | 0.00 | 0.00 | 34 | 1009.0 |
| 20260505220700 | 76 | 112 | 2.6 | 9.6 | 0.00 | 0.00 | 0.00 | 34 | 1009.0 |
| 20260505220201 | 76 | 112 | 2.6 | 9.6 | 0.00 | 0.00 | 0.00 | 34 | 1009.0 |
| 20260505215701 | 76 | 112 | 2.6 | 9.6 | 0.00 | 0.00 | 0.00 | 34 | 1009.0 |
| 20260505215201 | 76 | 112 | 2.6 | 9.6 | 0.00 | 0.00 | 0.00 | 34 | 1009.0 |
| 20260505214701 | 76 | 112 | 2.6 | 9.6 | 0.00 | 0.00 | 0.00 | 34 | 1009.0 |
| 20260505214200 | 76 | 112 | 2.6 | 9.6 | 0.00 | 0.00 | 0.00 | 34 | 1009.0 |
| 20260505213702 | 76 | 112 | 2.6 | 9.6 | 0.00 | 0.00 | 0.00 | 34 | 1009.0 |
| 20260505213200 | 76 | 112 | 2.6 | 9.6 | 0.00 | 0.00 | 0.00 | 34 | 1009.0 |
| 20260505212700 | 76 | 112 | 2.6 | 9.6 | 0.00 | 0.00 | 0.00 | 34 | 1009.0 |
| 20260505212202 | 76 | 112 | 2.6 | 9.6 | 0.00 | 0.00 | 0.00 | 34 | 1009.0 |
| 20260505211701 | 76 | 112 | 2.6 | 9.6 | 0.00 | 0.00 | 0.00 | 34 | 1009.0 |
| 20260505211200 | 76 | 112 | 2.6 | 9.6 | 0.00 | 0.00 | 0.00 | 34 | 1009.0 |
| 20260505210701 | 76 | 112 | 2.6 | 9.6 | 0.00 | 0.00 | 0.00 | 34 | 1009.0 |
| 20260505210200 | 76 | 112 | 2.6 | 9.6 | 0.00 | 0.00 | 0.00 | 34 | 1009.0 |
| 20260505205700 | 76 | 112 | 2.6 | 9.6 | 0.00 | 0.00 | 0.00 | 34 | 1009.0 |
| 20260505205201 | 76 | 112 | 2.6 | 9.6 | 0.00 | 0.00 | 0.00 | 34 | 1009.0 |
| 20260505204701 | 76 | 112 | 2.6 | 9.6 | 0.00 | 0.00 | 0.00 | 34 | 1009.0 |
| 20260505204200 | 76 | 112 | 2.6 | 9.6 | 0.00 | 0.00 | 0.00 | 34 | 1009.0 |
| 20260505203700 | 76 | 112 | 2.6 | 9.6 | 0.00 | 0.00 | 0.00 | 34 | 1009.0 |
| 20260505203202 | 76 | 112 | 2.6 | 9.6 | 0.00 | 0.00 | 0.00 | 34 | 1009.0 |
| 20260505202700 | 76 | 112 | 2.6 | 9.6 | 0.00 | 0.00 | 0.00 | 34 | 1009.0 |
| 20260505202202 | 76 | 112 | 2.6 | 9.6 | 0.00 | 0.00 | 0.00 | 34 | 1009.0 |
| 20260505201701 | 76 | 112 | 2.6 | 9.6 | 0.00 | 0.00 | 0.00 | 34 | 1009.0 |
| 20260505201202 | 76 | 112 | 2.6 | 9.6 | 0.00 | 0.00 | 0.00 | 34 | 1009.0 |
| 20260505200703 | 76 | 112 | 2.6 | 9.6 | 0.00 | 0.00 | 0.00 | 34 | 1009.0 |
| 20260505200200 | 76 | 112 | 2.6 | 9.6 | 0.00 | 0.00 | 0.00 | 34 | 1009.0 |
| 20260505195700 | 76 | 112 | 2.6 | 9.6 | 0.00 | 0.00 | 0.00 | 34 | 1009.0 |
| 20260505195200 | 76 | 112 | 2.6 | 9.6 | 0.00 | 0.00 | 0.00 | 34 | 1009.0 |
| 20260505194703 | 76 | 112 | 2.6 | 9.6 | 0.00 | 0.00 | 0.00 | 34 | 1009.0 |
| 20260505194200 | 76 | 112 | 2.6 | 9.6 | 0.00 | 0.00 | 0.00 | 34 | 1009.0 |
| 20260505193701 | 76 | 112 | 2.6 | 9.6 | 0.00 | 0.00 | 0.00 | 34 | 1009.0 |
| 20260505193200 | 76 | 112 | 2.6 | 9.6 | 0.00 | 0.00 | 0.00 | 34 | 1009.0 |
| 20260505192701 | 76 | 112 | 2.6 | 9.6 | 0.00 | 0.00 | 0.00 | 34 | 1009.0 |
| 20260505192201 | 76 | 112 | 2.6 | 9.6 | 0.00 | 0.00 | 0.00 | 34 | 1009.0 |
| 20260505191700 | 76 | 112 | 2.6 | 9.6 | 0.00 | 0.00 | 0.00 | 34 | 1009.0 |
| 20260505191201 | 76 | 112 | 2.6 | 9.6 | 0.00 | 0.00 | 0.00 | 34 | 1009.0 |
| 20260505190700 | 76 | 112 | 2.6 | 9.6 | 0.00 | 0.00 | 0.00 | 34 | 1009.0 |
| 20260505190202 | 76 | 112 | 2.6 | 9.6 | 0.00 | 0.00 | 0.00 | 34 | 1009.0 |
| 20260505185701 | 76 | 112 | 2.6 | 9.6 | 0.00 | 0.00 | 0.00 | 34 | 1009.0 |
| 20260505185200 | 76 | 112 | 2.6 | 9.6 | 0.00 | 0.00 | 0.00 | 34 | 1009.0 |
| 20260505184702 | 76 | 112 | 2.6 | 9.6 | 0.00 | 0.00 | 0.00 | 34 | 1009.0 |
| 20260505184201 | 76 | 112 | 2.6 | 9.6 | 0.00 | 0.00 | 0.00 | 34 | 1009.0 |
| 20260505183702 | 76 | 112 | 2.6 | 9.6 | 0.00 | 0.00 | 0.00 | 34 | 1009.0 |
| 20260505183201 | 76 | 112 | 2.6 | 9.6 | 0.00 | 0.00 | 0.00 | 34 | 1009.0 |
| 20260505182700 | 76 | 112 | 2.6 | 9.6 | 0.00 | 0.00 | 0.00 | 34 | 1009.0 |
| 20260505182200 | 76 | 112 | 2.6 | 9.6 | 0.00 | 0.00 | 0.00 | 34 | 1009.0 |
| 20260505181703 | 76 | 112 | 2.6 | 9.6 | 0.00 | 0.00 | 0.00 | 34 | 1009.0 |
| 20260505181201 | 76 | 112 | 2.6 | 9.6 | 0.00 | 0.00 | 0.00 | 34 | 1009.0 |
| 20260505180700 | 76 | 112 | 2.6 | 9.6 | 0.00 | 0.00 | 0.00 | 34 | 1009.0 |
| 20260505180200 | 76 | 112 | 2.6 | 9.6 | 0.00 | 0.00 | 0.00 | 34 | 1009.0 |
| 20260505175700 | 76 | 112 | 2.6 | 9.6 | 0.00 | 0.00 | 0.00 | 34 | 1009.0 |
| 20260505175202 | 76 | 112 | 2.6 | 9.6 | 0.00 | 0.00 | 0.00 | 34 | 1009.0 |
| 20260505174700 | 76 | 112 | 2.6 | 9.6 | 0.00 | 0.00 | 0.00 | 34 | 1009.0 |
| 20260505174202 | 76 | 112 | 2.6 | 9.6 | 0.00 | 0.00 | 0.00 | 34 | 1009.0 |
| 20260505173700 | 76 | 112 | 2.6 | 9.6 | 0.00 | 0.00 | 0.00 | 34 | 1009.0 |
| 20260505173201 | 76 | 112 | 2.6 | 9.6 | 0.00 | 0.00 | 0.00 | 34 | 1009.0 |
| 20260505172701 | 76 | 112 | 2.6 | 9.6 | 0.00 | 0.00 | 0.00 | 34 | 1009.0 |
| 20260505172201 | 76 | 112 | 2.6 | 9.6 | 0.00 | 0.00 | 0.00 | 34 | 1009.0 |
| 20260505171701 | 76 | 112 | 2.6 | 9.6 | 0.00 | 0.00 | 0.00 | 34 | 1009.0 |
| 20260505171200 | 76 | 112 | 2.6 | 9.6 | 0.00 | 0.00 | 0.00 | 34 | 1009.0 |
| 20260505170703 | 76 | 112 | 2.6 | 9.6 | 0.00 | 0.00 | 0.00 | 34 | 1009.0 |
| 20260505170201 | 76 | 112 | 2.6 | 9.6 | 0.00 | 0.00 | 0.00 | 34 | 1009.0 |
| 20260505165703 | 76 | 112 | 2.6 | 9.6 | 0.00 | 0.00 | 0.00 | 34 | 1009.0 |
| 20260505165201 | 76 | 112 | 2.6 | 9.6 | 0.00 | 0.00 | 0.00 | 34 | 1009.0 |
| 20260505164700 | 76 | 112 | 2.6 | 9.6 | 0.00 | 0.00 | 0.00 | 34 | 1009.0 |
| 20260505164201 | 76 | 112 | 2.6 | 9.6 | 0.00 | 0.00 | 0.00 | 34 | 1009.0 |
| 20260505163702 | 76 | 112 | 2.6 | 9.6 | 0.00 | 0.00 | 0.00 | 34 | 1009.0 |
| 20260505163200 | 76 | 112 | 2.6 | 9.6 | 0.00 | 0.00 | 0.00 | 34 | 1009.0 |
| 20260505162703 | 76 | 112 | 2.6 | 9.6 | 0.00 | 0.00 | 0.00 | 34 | 1009.0 |
| 20260505162201 | 76 | 112 | 2.6 | 9.6 | 0.00 | 0.00 | 0.00 | 34 | 1009.0 |
| 20260505161701 | 76 | 112 | 2.6 | 9.6 | 0.00 | 0.00 | 0.00 | 34 | 1009.0 |
| 20260505161200 | 76 | 112 | 2.6 | 9.6 | 0.00 | 0.00 | 0.00 | 34 | 1009.0 |
| 20260505160704 | 76 | 112 | 2.6 | 9.6 | 0.00 | 0.00 | 0.00 | 34 | 1009.0 |
| 20260505160200 | 76 | 112 | 2.6 | 9.6 | 0.00 | 0.00 | 0.00 | 34 | 1009.0 |
| 20260505153200 | 76 | 112 | 2.6 | 9.6 | 0.00 | 0.00 | 0.00 | 34 | 1009.0 |
| 20260505152700 | 76 | 112 | 2.6 | 9.6 | 0.00 | 0.00 | 0.00 | 34 | 1009.0 |
| 20260505152200 | 76 | 112 | 2.6 | 9.6 | 0.00 | 0.00 | 0.00 | 34 | 1009.0 |
| 20260505151703 | 76 | 112 | 2.6 | 9.6 | 0.00 | 0.00 | 0.00 | 34 | 1009.0 |
| 20260505151200 | 76 | 112 | 2.6 | 9.6 | 0.00 | 0.00 | 0.00 | 34 | 1009.0 |
| 20260505150700 | 76 | 112 | 2.6 | 9.6 | 0.00 | 0.00 | 0.00 | 34 | 1009.0 |
| 20260505150201 | 76 | 112 | 2.6 | 9.6 | 0.00 | 0.00 | 0.00 | 34 | 1009.0 |
| 20260505140203 | 76 | 112 | 2.6 | 9.6 | 0.00 | 0.00 | 0.00 | 34 | 1009.0 |
| 20260505130202 | 76 | 112 | 2.6 | 9.6 | 0.00 | 0.00 | 0.00 | 34 | 1009.0 |
| 20260505124700 | 76 | 112 | 2.6 | 9.6 | 0.00 | 0.00 | 0.00 | 34 | 1009.0 |
| 20260505124200 | 76 | 112 | 2.6 | 9.6 | 0.00 | 0.00 | 0.00 | 34 | 1009.0 |
| 20260505123700 | 76 | 112 | 2.6 | 9.6 | 0.00 | 0.00 | 0.00 | 34 | 1009.0 |
| 20260505123200 | 76 | 112 | 2.6 | 9.6 | 0.00 | 0.00 | 0.00 | 34 | 1009.0 |
| 20260505122702 | 76 | 112 | 2.6 | 9.6 | 0.00 | 0.00 | 0.00 | 34 | 1009.0 |
| 20260505122200 | 76 | 112 | 2.6 | 9.6 | 0.00 | 0.00 | 0.00 | 34 | 1009.0 |
| 20260505121700 | 76 | 112 | 2.6 | 9.6 | 0.00 | 0.00 | 0.00 | 34 | 1009.0 |
| 20260505121200 | 76 | 112 | 2.6 | 9.6 | 0.00 | 0.00 | 0.00 | 34 | 1009.0 |
| 20260505120703 | 76 | 112 | 2.6 | 9.6 | 0.00 | 0.00 | 0.00 | 34 | 1009.0 |
| 20260505120200 | 76 | 112 | 2.6 | 9.6 | 0.00 | 0.00 | 0.00 | 34 | 1009.0 |
| 20260505115702 | 76 | 112 | 2.6 | 9.6 | 0.00 | 0.00 | 0.00 | 34 | 1009.0 |
| 20260505115200 | 76 | 112 | 2.6 | 9.6 | 0.00 | 0.00 | 0.00 | 34 | 1009.0 |
| 20260505114701 | 76 | 112 | 2.6 | 9.6 | 0.00 | 0.00 | 0.00 | 34 | 1009.0 |
| 20260505114200 | 76 | 112 | 2.6 | 9.6 | 0.00 | 0.00 | 0.00 | 34 | 1009.0 |
| 20260505113700 | 76 | 112 | 2.6 | 9.6 | 0.00 | 0.00 | 0.00 | 34 | 1009.0 |
| 20260505113202 | 76 | 112 | 2.6 | 9.6 | 0.00 | 0.00 | 0.00 | 34 | 1009.0 |
| 20260505112700 | 76 | 112 | 2.6 | 9.6 | 0.00 | 0.00 | 0.00 | 34 | 1009.0 |
| 20260505112203 | 76 | 112 | 2.6 | 9.6 | 0.00 | 0.00 | 0.00 | 34 | 1009.0 |
| 20260505111700 | 76 | 112 | 2.6 | 9.6 | 0.00 | 0.00 | 0.00 | 34 | 1009.0 |
| 20260505111201 | 76 | 112 | 2.6 | 9.6 | 0.00 | 0.00 | 0.00 | 34 | 1009.0 |
| 20260505110702 | 76 | 112 | 2.6 | 9.6 | 0.00 | 0.00 | 0.00 | 34 | 1009.0 |
| 20260505110202 | 76 | 112 | 2.6 | 9.6 | 0.00 | 0.00 | 0.00 | 34 | 1009.0 |